Location: ?????
(32.7281°N, 34.9563°E)
Time: 18:34:21
(UTC+00:00)

Cosmos 2058 - Pass Details

Date: 29 October 2020
Orbit: 562 x 583 km, 82.5° (Epoch: 01 December)

Event Time Altitude Azimuth Distance (km) Brightness Sun altitude
Rises 15:56:56 0° 0° (N) 2,757 6.3 -14.2°
Reaches altitude 10° 15:59:11 10° 7° (N) 1,858 5.4 -14.7°
Maximum altitude 16:03:08 47° 81° (E) 756 3.0 -15.5°
Drops below altitude 10° 16:07:04 10° 156° (SSE) 1,853 5.3 -16.4°
Sets 16:09:18 0° 162° (SSE) 2,748 6.3 -16.8°
